Time,TemperatureF,DewpointF,PressureIn,WindDirection,WindDirectionDegrees,WindSpeedMPH,WindSpeedGustMPH,Humidity,HourlyPrecipIn,Conditions,Clouds,dailyrainin,SoftwareType,DateUTC
2013-03-02 00:00:00,50.4,27.6,30.31,North,360,0.0,5.0,41,0.00,,CLR,0.00,VWS V14.01,2013-03-02 06:00:00,
2013-03-02 00:05:00,50.1,27.9,30.32,North,11,0.0,4.0,42,0.00,,CLR,0.00,VWS V14.01,2013-03-02 06:05:00,
2013-03-02 00:10:00,49.9,27.7,30.32,North,9,1.0,4.0,42,0.00,,CLR,0.00,VWS V14.01,2013-03-02 06:10:00,
2013-03-02 00:15:00,49.9,27.7,30.32,North,9,0.0,2.0,42,0.00,,CLR,0.00,VWS V14.01,2013-03-02 06:15:00,
2013-03-02 00:20:00,49.8,28.2,30.32,North,360,0.0,4.0,43,0.00,,CLR,0.00,VWS V14.01,2013-03-02 06:20:00,
2013-03-02 00:25:00,49.5,28.0,30.32,North,360,0.0,2.0,43,0.00,,CLR,0.00,VWS V14.01,2013-03-02 06:25:00,
2013-03-02 00:30:00,49.4,27.9,30.32,North,360,0.0,3.0,43,0.00,,CLR,0.00,VWS V14.01,2013-03-02 06:30:00,
2013-03-02 00:35:00,49.4,27.9,30.33,North,360,0.0,0.0,43,0.00,,CLR,0.00,VWS V14.01,2013-03-02 06:35:00,
2013-03-02 00:40:00,49.2,27.7,30.33,North,360,0.0,0.0,43,0.00,,CLR,0.00,VWS V14.01,2013-03-02 06:40:00,
2013-03-02 00:45:00,49.1,27.6,30.33,North,360,0.0,0.0,43,0.00,,CLR,0.00,VWS V14.01,2013-03-02 06:45:00,
2013-03-02 00:50:00,48.8,27.9,30.33,North,360,0.0,0.0,44,0.00,,CLR,0.00,VWS V14.01,2013-03-02 06:50:00,
2013-03-02 00:55:00,48.6,27.7,30.33,North,360,0.0,0.0,44,0.00,,CLR,0.00,VWS V14.01,2013-03-02 06:55:00,
2013-03-02 01:00:00,48.2,27.3,30.33,North,360,0.0,0.0,44,0.00,,CLR,0.00,VWS V14.01,2013-03-02 07:00:00,
2013-03-02 01:05:00,48.0,27.7,30.33,North,360,0.0,0.0,45,0.00,,CLR,0.00,VWS V14.01,2013-03-02 07:05:00,
2013-03-02 01:10:00,47.7,27.4,30.33,North,360,0.0,0.0,45,0.00,,CLR,0.00,VWS V14.01,2013-03-02 07:10:00,
2013-03-02 01:15:00,47.3,27.6,30.33,North,360,0.0,0.0,46,0.00,,CLR,0.00,VWS V14.01,2013-03-02 07:15:00,
2013-03-02 01:20:00,46.8,27.6,30.33,North,360,0.0,0.0,47,0.00,,CLR,0.00,VWS V14.01,2013-03-02 07:20:00,
2013-03-02 01:25:00,46.4,27.3,30.33,North,360,0.0,0.0,47,0.00,,CLR,0.00,VWS V14.01,2013-03-02 07:25:00,
2013-03-02 01:30:00,46.0,27.4,30.33,North,360,0.0,0.0,48,0.00,,CLR,0.00,VWS V14.01,2013-03-02 07:30:00,
2013-03-02 01:35:00,45.7,27.6,30.34,North,360,0.0,0.0,49,0.00,,CLR,0.00,VWS V14.01,2013-03-02 07:35:00,
2013-03-02 01:40:00,45.4,27.4,30.34,North,360,0.0,0.0,49,0.00,,CLR,0.00,VWS V14.01,2013-03-02 07:40:00,
2013-03-02 01:45:00,45.2,27.2,30.34,North,360,0.0,0.0,49,0.00,,CLR,0.00,VWS V14.01,2013-03-02 07:45:00,
2013-03-02 01:50:00,45.7,27.1,30.34,North,360,1.0,3.0,48,0.00,,CLR,0.00,VWS V14.01,2013-03-02 07:50:00,
2013-03-02 01:55:00,46.2,27.1,30.34,North,360,3.0,3.0,47,0.00,,CLR,0.00,VWS V14.01,2013-03-02 07:55:00,
2013-03-02 02:00:00,46.8,26.6,30.34,NW,313,4.0,6.0,45,0.00,,CLR,0.00,VWS V14.01,2013-03-02 08:00:00,
2013-03-02 02:05:00,46.8,26.6,30.34,NW,312,2.0,4.0,45,0.00,,CLR,0.00,VWS V14.01,2013-03-02 08:05:00,
2013-03-02 02:10:00,46.7,26.5,30.34,NW,311,4.0,5.0,45,0.00,,CLR,0.00,VWS V14.01,2013-03-02 08:10:00,
2013-03-02 02:15:00,46.4,26.2,30.34,NW,311,0.0,5.0,45,0.00,,CLR,0.00,VWS V14.01,2013-03-02 08:15:00,
2013-03-02 02:20:00,46.0,26.4,30.34,NW,311,0.0,5.0,46,0.00,,CLR,0.00,VWS V14.01,2013-03-02 08:20:00,
2013-03-02 02:25:00,45.4,25.9,30.34,NW,316,4.0,6.0,46,0.00,,CLR,0.00,VWS V14.01,2013-03-02 08:25:00,
2013-03-02 02:30:00,45.1,26.1,30.34,NW,314,2.0,6.0,47,0.00,,CLR,0.00,VWS V14.01,2013-03-02 08:30:00,
2013-03-02 02:35:00,44.8,25.8,30.33,NW,314,0.0,1.0,47,0.00,,CLR,0.00,VWS V14.01,2013-03-02 08:35:00,
2013-03-02 02:40:00,44.5,26.0,30.33,NW,314,0.0,2.0,48,0.00,,CLR,0.00,VWS V14.01,2013-03-02 08:40:00,
2013-03-02 02:45:00,44.2,25.8,30.33,NW,314,0.0,0.0,48,0.00,,CLR,0.00,VWS V14.01,2013-03-02 08:45:00,
2013-03-02 02:50:00,44.1,25.7,30.33,NW,313,0.0,4.0,48,0.00,,CLR,0.00,VWS V14.01,2013-03-02 08:50:00,
2013-03-02 02:55:00,44.1,25.7,30.33,NW,311,0.0,3.0,48,0.00,,CLR,0.00,VWS V14.01,2013-03-02 08:55:00,
2013-03-02 03:00:00,44.1,26.2,30.33,NW,312,0.0,3.0,49,0.00,,CLR,0.00,VWS V14.01,2013-03-02 09:00:00,
2013-03-02 03:05:00,43.9,26.0,30.33,NW,312,0.0,2.0,49,0.00,,CLR,0.00,VWS V14.01,2013-03-02 09:05:00,
2013-03-02 03:10:00,43.5,25.6,30.33,NW,312,0.0,3.0,49,0.00,,CLR,0.00,VWS V14.01,2013-03-02 09:10:00,
2013-03-02 03:15:00,43.3,25.9,30.33,NW,312,0.0,2.0,50,0.00,,CLR,0.00,VWS V14.01,2013-03-02 09:15:00,
2013-03-02 03:20:00,43.2,26.3,30.33,NW,325,2.0,5.0,51,0.00,,CLR,0.00,VWS V14.01,2013-03-02 09:20:00,
2013-03-02 03:25:00,43.5,26.6,30.33,NW,324,0.0,6.0,51,0.00,,CLR,0.00,VWS V14.01,2013-03-02 09:25:00,
2013-03-02 03:30:00,44.1,26.7,30.33,NNW,327,3.0,6.0,50,0.00,,CLR,0.00,VWS V14.01,2013-03-02 09:30:00,
2013-03-02 03:35:00,44.5,26.5,30.33,North,355,5.0,6.0,49,0.00,,CLR,0.00,VWS V14.01,2013-03-02 09:35:00,
2013-03-02 03:40:00,44.6,26.6,30.33,NNW,341,5.0,7.0,49,0.00,,CLR,0.00,VWS V14.01,2013-03-02 09:40:00,
2013-03-02 03:45:00,44.6,27.1,30.33,NNW,331,5.0,7.0,50,0.00,,CLR,0.00,VWS V14.01,2013-03-02 09:45:00,
2013-03-02 03:50:00,44.6,27.1,30.33,NNE,12,3.0,7.0,50,0.00,,CLR,0.00,VWS V14.01,2013-03-02 09:50:00,
2013-03-02 03:55:00,44.9,27.4,30.33,North,355,5.0,10.0,50,0.00,,CLR,0.00,VWS V14.01,2013-03-02 09:55:00,
2013-03-02 04:00:00,45.2,27.7,30.33,NNW,341,8.0,11.0,50,0.00,,CLR,0.00,VWS V14.01,2013-03-02 10:00:00,
2013-03-02 04:05:00,45.5,27.5,30.33,North,360,3.0,11.0,49,0.00,,CLR,0.00,VWS V14.01,2013-03-02 10:05:00,
2013-03-02 04:10:00,45.7,27.6,30.33,North,5,1.0,12.0,49,0.00,,CLR,0.00,VWS V14.01,2013-03-02 10:10:00,
2013-03-02 04:15:00,46.0,27.9,30.33,NNW,331,5.0,14.0,49,0.00,,CLR,0.00,VWS V14.01,2013-03-02 10:15:00,
2013-03-02 04:20:00,46.0,27.4,30.33,NNW,335,9.0,14.0,48,0.00,,CLR,0.00,VWS V14.01,2013-03-02 10:20:00,
2013-03-02 04:25:00,46.0,27.9,30.33,North,5,4.0,15.0,49,0.00,,CLR,0.00,VWS V14.01,2013-03-02 10:25:00,
2013-03-02 04:30:00,45.8,27.7,30.33,NW,323,13.0,17.0,49,0.00,,CLR,0.00,VWS V14.01,2013-03-02 10:30:00,
2013-03-02 04:35:00,45.8,27.7,30.33,North,355,10.0,15.0,49,0.00,,CLR,0.00,VWS V14.01,2013-03-02 10:35:00,
2013-03-02 04:40:00,45.7,27.6,30.33,NNW,347,11.0,15.0,49,0.00,,CLR,0.00,VWS V14.01,2013-03-02 10:40:00,
2013-03-02 04:45:00,45.7,27.6,30.33,NNW,338,12.0,15.0,49,0.00,,CLR,0.00,VWS V14.01,2013-03-02 10:45:00,
2013-03-02 04:50:00,45.8,27.7,30.34,NW,324,9.0,15.0,49,0.00,,CLR,0.00,VWS V14.01,2013-03-02 10:50:00,
2013-03-02 04:55:00,45.8,27.7,30.34,NW,325,4.0,12.0,49,0.00,,CLR,0.00,VWS V14.01,2013-03-02 10:55:00,
2013-03-02 05:00:00,45.8,27.7,30.34,NNW,342,7.0,13.0,49,0.00,,CLR,0.00,VWS V14.01,2013-03-02 11:00:00,
2013-03-02 05:05:00,45.8,27.7,30.34,NW,321,7.0,16.0,49,0.00,,CLR,0.00,VWS V14.01,2013-03-02 11:05:00,
2013-03-02 05:10:00,45.7,27.6,30.34,NNW,342,3.0,16.0,49,0.00,,CLR,0.00,VWS V14.01,2013-03-02 11:10:00,
2013-03-02 05:15:00,45.5,27.5,30.34,NNW,335,10.0,12.0,49,0.00,,CLR,0.00,VWS V14.01,2013-03-02 11:15:00,
2013-03-02 05:20:00,45.1,27.6,30.34,NNW,337,9.0,12.0,50,0.00,,CLR,0.00,VWS V14.01,2013-03-02 11:20:00,
2013-03-02 05:25:00,44.8,27.8,30.34,NNW,346,5.0,10.0,51,0.00,,CLR,0.00,VWS V14.01,2013-03-02 11:25:00,
2013-03-02 05:30:00,44.5,27.5,30.34,NNW,336,6.0,10.0,51,0.00,,CLR,0.00,VWS V14.01,2013-03-02 11:30:00,
2013-03-02 05:35:00,44.2,27.7,30.35,NW,323,6.0,12.0,52,0.00,,CLR,0.00,VWS V14.01,2013-03-02 11:35:00,
2013-03-02 05:40:00,43.9,27.4,30.35,North,355,2.0,12.0,52,0.00,,CLR,0.00,VWS V14.01,2013-03-02 11:40:00,
2013-03-02 05:45:00,43.6,27.6,30.35,NNW,331,4.0,10.0,53,0.00,,CLR,0.00,VWS V14.01,2013-03-02 11:45:00,
2013-03-02 05:50:00,43.5,27.5,30.36,NNW,330,3.0,10.0,53,0.00,,CLR,0.00,VWS V14.01,2013-03-02 11:50:00,
2013-03-02 05:55:00,43.3,27.8,30.36,NNW,331,4.0,8.0,54,0.00,,CLR,0.00,VWS V14.01,2013-03-02 11:55:00,
2013-03-02 06:00:00,43.2,27.7,30.36,North,355,1.0,8.0,54,0.00,,CLR,0.00,VWS V14.01,2013-03-02 12:00:00,
2013-03-02 06:05:00,43.1,27.6,30.38,NNW,333,0.0,4.0,54,0.00,,CLR,0.00,VWS V14.01,2013-03-02 12:05:00,
2013-03-02 06:10:00,42.9,27.9,30.38,NW,319,0.0,5.0,55,0.00,,CLR,0.00,VWS V14.01,2013-03-02 12:10:00,
2013-03-02 06:15:00,42.9,27.9,30.38,NW,323,1.0,2.0,55,0.00,,CLR,0.00,VWS V14.01,2013-03-02 12:15:00,
2013-03-02 06:20:00,42.9,27.9,30.39,NNW,334,1.0,6.0,55,0.00,,CLR,0.00,VWS V14.01,2013-03-02 12:20:00,
2013-03-02 06:25:00,42.9,27.9,30.39,NW,315,0.0,4.0,55,0.00,,CLR,0.00,VWS V14.01,2013-03-02 12:25:00,
2013-03-02 06:30:00,42.9,27.9,30.39,NW,315,0.0,4.0,55,0.00,,CLR,0.00,VWS V14.01,2013-03-02 12:30:00,
2013-03-02 06:35:00,42.6,28.0,30.40,NW,314,0.0,0.0,56,0.00,,CLR,0.00,VWS V14.01,2013-03-02 12:35:00,
2013-03-02 06:40:00,42.2,27.6,30.40,NW,313,0.0,4.0,56,0.00,,CLR,0.00,VWS V14.01,2013-03-02 12:40:00,
2013-03-02 06:45:00,41.8,27.7,30.40,NW,313,0.0,0.0,57,0.00,,CLR,0.00,VWS V14.01,2013-03-02 12:45:00,
2013-03-02 06:50:00,41.2,27.1,30.41,NW,313,0.0,2.0,57,0.00,,CLR,0.00,VWS V14.01,2013-03-02 12:50:00,
2013-03-02 06:55:00,40.8,27.2,30.41,NW,313,0.0,3.0,58,0.00,,CLR,0.00,VWS V14.01,2013-03-02 12:55:00,
2013-03-02 07:00:00,40.6,27.0,30.41,NW,313,2.0,4.0,58,0.00,,CLR,0.00,VWS V14.01,2013-03-02 13:00:00,
2013-03-02 07:05:00,40.5,27.3,30.41,NW,313,1.0,3.0,59,0.00,,CLR,0.00,VWS V14.01,2013-03-02 13:05:00,
2013-03-02 07:10:00,40.5,27.3,30.41,NW,313,0.0,4.0,59,0.00,,CLR,0.00,VWS V14.01,2013-03-02 13:10:00,
2013-03-02 07:15:00,40.5,27.3,30.41,NW,319,0.0,4.0,59,0.00,,CLR,0.00,VWS V14.01,2013-03-02 13:15:00,
2013-03-02 07:20:00,40.8,27.6,30.41,NW,318,3.0,5.0,59,0.00,,CLR,0.00,VWS V14.01,2013-03-02 13:20:00,
2013-03-02 07:25:00,40.9,27.7,30.41,NW,316,3.0,5.0,59,0.00,,CLR,0.00,VWS V14.01,2013-03-02 13:25:00,
2013-03-02 07:30:00,41.2,28.0,30.41,NW,318,2.0,5.0,59,0.00,,CLR,0.00,VWS V14.01,2013-03-02 13:30:00,
2013-03-02 07:35:00,41.6,27.9,30.42,NW,317,3.0,9.0,58,0.00,,CLR,0.00,VWS V14.01,2013-03-02 13:35:00,
2013-03-02 07:40:00,42.1,28.0,30.42,NW,307,3.0,9.0,57,0.00,,CLR,0.00,VWS V14.01,2013-03-02 13:40:00,
2013-03-02 07:45:00,42.2,27.6,30.42,NW,312,4.0,6.0,56,0.00,,CLR,0.00,VWS V14.01,2013-03-02 13:45:00,
2013-03-02 07:50:00,42.6,28.0,30.43,NW,317,4.0,8.0,56,0.00,,CLR,0.00,VWS V14.01,2013-03-02 13:50:00,
2013-03-02 07:55:00,43.1,28.0,30.43,NNW,340,4.0,10.0,55,0.00,,CLR,0.00,VWS V14.01,2013-03-02 13:55:00,
2013-03-02 08:00:00,43.5,28.0,30.43,NW,319,3.0,10.0,54,0.00,,CLR,0.00,VWS V14.01,2013-03-02 14:00:00,
2013-03-02 08:05:00,43.9,28.4,30.44,NW,311,5.0,6.0,54,0.00,,CLR,0.00,VWS V14.01,2013-03-02 14:05:00,
2013-03-02 08:10:00,43.9,27.9,30.44,NNW,327,1.0,9.0,53,0.00,,CLR,0.00,VWS V14.01,2013-03-02 14:10:00,
2013-03-02 08:15:00,44.1,28.5,30.44,NW,315,5.0,9.0,54,0.00,,CLR,0.00,VWS V14.01,2013-03-02 14:15:00,
2013-03-02 08:20:00,44.3,28.7,30.45,NNW,327,2.0,9.0,54,0.00,,CLR,0.00,VWS V14.01,2013-03-02 14:20:00,
2013-03-02 08:25:00,45.1,29.0,30.45,WNW,296,0.0,6.0,53,0.00,,CLR,0.00,VWS V14.01,2013-03-02 14:25:00,
2013-03-02 08:30:00,45.5,28.4,30.45,WNW,286,7.0,12.0,51,0.00,,CLR,0.00,VWS V14.01,2013-03-02 14:30:00,
2013-03-02 08:35:00,45.4,28.4,30.45,North,355,9.0,15.0,51,0.00,,CLR,0.00,VWS V14.01,2013-03-02 14:35:00,
2013-03-02 08:40:00,45.7,28.6,30.45,NNW,342,3.0,15.0,51,0.00,,CLR,0.00,VWS V14.01,2013-03-02 14:40:00,
2013-03-02 08:45:00,46.4,28.3,30.45,NNW,338,10.0,13.0,49,0.00,,CLR,0.00,VWS V14.01,2013-03-02 14:45:00,
2013-03-02 08:50:00,46.5,27.9,30.46,NNW,327,10.0,14.0,48,0.00,,CLR,0.00,VWS V14.01,2013-03-02 14:50:00,
2013-03-02 08:55:00,46.5,27.9,30.46,NW,316,8.0,13.0,48,0.00,,CLR,0.00,VWS V14.01,2013-03-02 14:55:00,
2013-03-02 09:00:00,47.0,27.8,30.46,North,355,7.0,16.0,47,0.00,,CLR,0.00,VWS V14.01,2013-03-02 15:00:00,
2013-03-02 09:05:00,47.1,27.9,30.46,NW,312,10.0,17.0,47,0.00,,CLR,0.00,VWS V14.01,2013-03-02 15:05:00,
2013-03-02 09:10:00,47.0,27.8,30.46,North,355,6.0,17.0,47,0.00,,CLR,0.00,VWS V14.01,2013-03-02 15:10:00,
2013-03-02 09:15:00,47.6,26.8,30.46,North,5,9.0,16.0,44,0.00,,CLR,0.00,VWS V14.01,2013-03-02 15:15:00,
2013-03-02 09:20:00,48.0,26.0,30.46,NNW,337,6.0,17.0,42,0.00,,CLR,0.00,VWS V14.01,2013-03-02 15:20:00,
2013-03-02 09:25:00,48.3,25.7,30.46,NNW,344,8.0,14.0,41,0.00,,CLR,0.00,VWS V14.01,2013-03-02 15:25:00,
2013-03-02 09:30:00,48.6,24.2,30.46,NNW,340,5.0,19.0,38,0.00,,CLR,0.00,VWS V14.01,2013-03-02 15:30:00,
2013-03-02 09:35:00,48.8,25.0,30.46,NNW,332,13.0,19.0,39,0.00,,CLR,0.00,VWS V14.01,2013-03-02 15:35:00,
2013-03-02 09:40:00,49.1,24.6,30.46,North,5,7.0,19.0,38,0.00,,CLR,0.00,VWS V14.01,2013-03-02 15:40:00,
2013-03-02 09:45:00,49.4,24.9,30.46,NNW,348,11.0,15.0,38,0.00,,CLR,0.00,VWS V14.01,2013-03-02 15:45:00,
2013-03-02 09:50:00,49.5,25.0,30.45,NNW,343,6.0,19.0,38,0.00,,CLR,0.00,VWS V14.01,2013-03-02 15:50:00,
2013-03-02 09:55:00,49.6,25.0,30.45,North,355,10.0,15.0,38,0.00,,CLR,0.00,VWS V14.01,2013-03-02 15:55:00,
2013-03-02 10:00:00,50.1,25.5,30.45,NNW,340,9.0,15.0,38,0.00,,CLR,0.00,VWS V14.01,2013-03-02 16:00:00,
2013-03-02 10:05:00,50.5,25.2,30.45,North,355,10.0,11.0,37,0.00,,CLR,0.00,VWS V14.01,2013-03-02 16:05:00,
2013-03-02 10:10:00,50.7,24.7,30.45,North,5,6.0,14.0,36,0.00,,CLR,0.00,VWS V14.01,2013-03-02 16:10:00,
2013-03-02 10:15:00,50.8,24.1,30.45,NW,308,7.0,15.0,35,0.00,,CLR,0.00,VWS V14.01,2013-03-02 16:15:00,
2013-03-02 10:20:00,51.3,23.9,30.46,NW,312,11.0,15.0,34,0.00,,CLR,0.00,VWS V14.01,2013-03-02 16:20:00,
2013-03-02 10:25:00,51.1,23.0,30.46,NW,326,7.0,19.0,33,0.00,,CLR,0.00,VWS V14.01,2013-03-02 16:25:00,
2013-03-02 10:30:00,51.1,23.0,30.46,NNW,338,4.0,19.0,33,0.00,,CLR,0.00,VWS V14.01,2013-03-02 16:30:00,
2013-03-02 10:35:00,51.4,22.5,30.46,NW,308,11.0,23.0,32,0.00,,CLR,0.00,VWS V14.01,2013-03-02 16:35:00,
2013-03-02 10:40:00,51.7,22.1,30.46,NNW,347,18.0,23.0,31,0.00,,CLR,0.00,VWS V14.01,2013-03-02 16:40:00,
2013-03-02 10:45:00,52.0,23.1,30.46,North,355,9.0,16.0,32,0.00,,CLR,0.00,VWS V14.01,2013-03-02 16:45:00,
2013-03-02 10:50:00,52.0,22.3,30.46,NNW,336,6.0,18.0,31,0.00,,CLR,0.00,VWS V14.01,2013-03-02 16:50:00,
2013-03-02 10:55:00,52.2,23.2,30.46,NW,312,6.0,19.0,32,0.00,,CLR,0.00,VWS V14.01,2013-03-02 16:55:00,
2013-03-02 11:00:00,52.2,22.5,30.46,North,5,3.0,19.0,31,0.00,,CLR,0.00,VWS V14.01,2013-03-02 17:00:00,
2013-03-02 11:05:00,53.1,24.0,30.46,WNW,296,10.0,11.0,32,0.00,,CLR,0.00,VWS V14.01,2013-03-02 17:05:00,
2013-03-02 11:10:00,53.3,23.5,30.46,NNW,332,5.0,13.0,31,0.00,,CLR,0.00,VWS V14.01,2013-03-02 17:10:00,
2013-03-02 11:15:00,53.5,23.6,30.46,NNW,331,6.0,13.0,31,0.00,,CLR,0.00,VWS V14.01,2013-03-02 17:15:00,
2013-03-02 11:20:00,53.9,22.4,30.45,NW,317,5.0,19.0,29,0.00,,CLR,0.00,VWS V14.01,2013-03-02 17:20:00,
2013-03-02 11:25:00,54.4,22.0,30.45,North,355,16.0,17.0,28,0.00,,CLR,0.00,VWS V14.01,2013-03-02 17:25:00,
2013-03-02 11:30:00,54.7,22.3,30.45,WNW,292,9.0,17.0,28,0.00,,CLR,0.00,VWS V14.01,2013-03-02 17:30:00,
2013-03-02 11:35:00,55.0,23.4,30.44,NW,318,7.0,14.0,29,0.00,,CLR,0.00,VWS V14.01,2013-03-02 17:35:00,
2013-03-02 11:40:00,55.3,21.9,30.44,NW,313,11.0,16.0,27,0.00,,CLR,0.00,VWS V14.01,2013-03-02 17:40:00,
2013-03-02 11:45:00,55.4,22.0,30.44,WNW,300,9.0,14.0,27,0.00,,CLR,0.00,VWS V14.01,2013-03-02 17:45:00,
2013-03-02 11:50:00,56.0,22.5,30.43,NW,320,10.0,14.0,27,0.00,,CLR,0.00,VWS V14.01,2013-03-02 17:50:00,
2013-03-02 11:55:00,56.0,23.4,30.43,NW,317,9.0,16.0,28,0.00,,CLR,0.00,VWS V14.01,2013-03-02 17:55:00,
2013-03-02 12:00:00,56.3,21.9,30.43,NW,325,11.0,16.0,26,0.00,,CLR,0.00,VWS V14.01,2013-03-02 18:00:00,
2013-03-02 12:05:00,56.7,21.3,30.43,NNW,335,15.0,24.0,25,0.00,,CLR,0.00,VWS V14.01,2013-03-02 18:05:00,
2013-03-02 12:10:00,56.7,20.3,30.43,WNW,290,10.0,24.0,24,0.00,,CLR,0.00,VWS V14.01,2013-03-02 18:10:00,
2013-03-02 12:15:00,56.7,21.3,30.43,NW,304,5.0,19.0,25,0.00,,CLR,0.00,VWS V14.01,2013-03-02 18:15:00,
2013-03-02 12:20:00,57.0,20.6,30.42,NW,312,10.0,19.0,24,0.00,,CLR,0.00,VWS V14.01,2013-03-02 18:20:00,
2013-03-02 12:25:00,57.3,21.8,30.42,NNW,336,7.0,19.0,25,0.00,,CLR,0.00,VWS V14.01,2013-03-02 18:25:00,
2013-03-02 12:30:00,57.6,22.1,30.42,NW,313,7.0,19.0,25,0.00,,CLR,0.00,VWS V14.01,2013-03-02 18:30:00,
2013-03-02 12:35:00,57.8,22.2,30.41,West,280,10.0,20.0,25,0.00,,CLR,0.00,VWS V14.01,2013-03-02 18:35:00,
2013-03-02 12:40:00,58.1,22.5,30.41,NNW,330,9.0,20.0,25,0.00,,CLR,0.00,VWS V14.01,2013-03-02 18:40:00,
2013-03-02 12:45:00,58.3,21.7,30.41,West,274,14.0,18.0,24,0.00,,CLR,0.00,VWS V14.01,2013-03-02 18:45:00,
2013-03-02 12:50:00,58.1,22.5,30.40,NW,326,10.0,18.0,25,0.00,,CLR,0.00,VWS V14.01,2013-03-02 18:50:00,
2013-03-02 12:55:00,57.8,22.2,30.40,NNW,332,5.0,19.0,25,0.00,,CLR,0.00,VWS V14.01,2013-03-02 18:55:00,
2013-03-02 12:59:00,58.6,20.9,30.40,WNW,297,17.0,22.0,23,0.00,,CLR,0.00,VWS V14.01,2013-03-02 18:59:00,
2013-03-02 13:05:00,58.7,21.0,30.39,NW,315,4.0,18.0,23,0.00,,CLR,0.00,VWS V14.01,2013-03-02 19:05:00,
2013-03-02 13:14:00,59.0,21.3,30.39,NW,320,12.0,23.0,23,0.00,,CLR,0.00,VWS V14.01,2013-03-02 19:14:00,
2013-03-02 13:19:00,59.0,20.2,30.38,NNW,328,11.0,23.0,22,0.00,,CLR,0.00,VWS V14.01,2013-03-02 19:19:00,
2013-03-02 13:24:00,59.8,22.0,30.38,NW,304,12.0,15.0,23,0.00,,CLR,0.00,VWS V14.01,2013-03-02 19:24:00,
2013-03-02 13:29:00,59.8,20.9,30.38,NW,309,11.0,19.0,22,0.00,,CLR,0.00,VWS V14.01,2013-03-02 19:29:00,
2013-03-02 13:34:00,59.3,21.5,30.37,NNW,341,7.0,17.0,23,0.00,,CLR,0.00,VWS V14.01,2013-03-02 19:34:00,
2013-03-02 13:39:00,59.5,21.7,30.37,West,277,9.0,21.0,23,0.00,,CLR,0.00,VWS V14.01,2013-03-02 19:39:00,
2013-03-02 13:44:00,60.1,22.2,30.37,NNW,345,12.0,17.0,23,0.00,,CLR,0.00,VWS V14.01,2013-03-02 19:44:00,
2013-03-02 13:49:00,60.7,21.7,30.36,North,355,9.0,19.0,22,0.00,,CLR,0.00,VWS V14.01,2013-03-02 19:49:00,
2013-03-02 13:54:00,60.7,21.7,30.36,NW,321,15.0,15.0,22,0.00,,CLR,0.00,VWS V14.01,2013-03-02 19:54:00,
2013-03-02 13:59:00,60.2,22.3,30.36,North,355,12.0,16.0,23,0.00,,CLR,0.00,VWS V14.01,2013-03-02 19:59:00,
2013-03-02 14:04:00,60.9,21.8,30.35,North,5,14.0,16.0,22,0.00,,CLR,0.00,VWS V14.01,2013-03-02 20:04:00,
2013-03-02 14:09:00,60.7,21.7,30.35,WNW,287,5.0,16.0,22,0.00,,CLR,0.00,VWS V14.01,2013-03-02 20:09:00,
2013-03-02 14:14:00,60.7,21.7,30.35,West,271,6.0,13.0,22,0.00,,CLR,0.00,VWS V14.01,2013-03-02 20:14:00,
2013-03-02 14:19:00,61.2,22.1,30.35,NW,310,8.0,18.0,22,0.00,,CLR,0.00,VWS V14.01,2013-03-02 20:19:00,
2013-03-02 14:24:00,61.2,22.1,30.35,North,360,8.0,19.0,22,0.00,,CLR,0.00,VWS V14.01,2013-03-02 20:24:00,
2013-03-02 14:29:00,61.6,22.4,30.35,NNW,332,11.0,19.0,22,0.00,,CLR,0.00,VWS V14.01,2013-03-02 20:29:00,
2013-03-02 14:34:00,62.1,22.8,30.34,North,355,11.0,14.0,22,0.00,,CLR,0.00,VWS V14.01,2013-03-02 20:34:00,
2013-03-02 14:39:00,62.1,22.8,30.34,NW,323,6.0,17.0,22,0.00,,CLR,0.00,VWS V14.01,2013-03-02 20:39:00,
2013-03-02 14:44:00,62.1,22.8,30.34,WNW,303,8.0,15.0,22,0.00,,CLR,0.00,VWS V14.01,2013-03-02 20:44:00,
2013-03-02 14:49:00,61.8,22.6,30.33,North,360,11.0,16.0,22,0.00,,CLR,0.00,VWS V14.01,2013-03-02 20:49:00,
2013-03-02 14:54:00,62.1,22.8,30.33,NNE,12,5.0,9.0,22,0.00,,CLR,0.00,VWS V14.01,2013-03-02 20:54:00,
2013-03-02 14:59:00,62.3,23.0,30.33,WNW,296,8.0,19.0,22,0.00,,CLR,0.00,VWS V14.01,2013-03-02 20:59:00,
2013-03-02 15:04:00,62.3,23.0,30.33,NNW,329,12.0,12.0,22,0.00,,CLR,0.00,VWS V14.01,2013-03-02 21:04:00,
2013-03-02 15:08:00,62.7,23.3,30.33,NW,306,6.0,12.0,22,0.00,,CLR,0.00,VWS V14.01,2013-03-02 21:08:00,
2013-03-02 15:14:00,62.7,22.2,30.33,NNW,336,15.0,18.0,21,0.00,,CLR,0.00,VWS V14.01,2013-03-02 21:14:00,
2013-03-02 15:19:00,62.6,23.2,30.32,NW,326,15.0,18.0,22,0.00,,CLR,0.00,VWS V14.01,2013-03-02 21:19:00,
2013-03-02 15:24:00,62.7,23.3,30.32,NNW,327,6.0,14.0,22,0.00,,CLR,0.00,VWS V14.01,2013-03-02 21:24:00,
2013-03-02 15:28:00,63.2,22.6,30.32,North,355,8.0,19.0,21,0.00,,CLR,0.00,VWS V14.01,2013-03-02 21:28:00,
2013-03-02 15:33:00,62.9,23.5,30.32,NNW,344,6.0,17.0,22,0.00,,CLR,0.00,VWS V14.01,2013-03-02 21:33:00,
2013-03-02 15:38:00,63.4,23.9,30.32,NW,316,5.0,17.0,22,0.00,,CLR,0.00,VWS V14.01,2013-03-02 21:38:00,
2013-03-02 15:43:00,63.4,22.8,30.32,NNW,343,6.0,15.0,21,0.00,,CLR,0.00,VWS V14.01,2013-03-02 21:43:00,
2013-03-02 15:48:00,63.4,23.9,30.31,North,355,12.0,15.0,22,0.00,,CLR,0.00,VWS V14.01,2013-03-02 21:48:00,
2013-03-02 15:53:00,63.2,23.8,30.31,NW,305,5.0,7.0,22,0.00,,CLR,0.00,VWS V14.01,2013-03-02 21:53:00,
2013-03-02 15:58:00,63.7,23.1,30.31,NNW,337,7.0,17.0,21,0.00,,CLR,0.00,VWS V14.01,2013-03-02 21:58:00,
2013-03-02 16:03:00,63.5,24.0,30.30,NNW,344,13.0,15.0,22,0.00,,CLR,0.00,VWS V14.01,2013-03-02 22:03:00,
2013-03-02 16:09:00,63.4,23.9,30.30,NNW,336,6.0,18.0,22,0.00,,CLR,0.00,VWS V14.01,2013-03-02 22:09:00,
2013-03-02 16:13:00,63.4,23.9,30.30,NW,311,10.0,20.0,22,0.00,,CLR,0.00,VWS V14.01,2013-03-02 22:13:00,
2013-03-02 16:18:00,63.5,24.0,30.30,NNW,348,6.0,20.0,22,0.00,,CLR,0.00,VWS V14.01,2013-03-02 22:18:00,
2013-03-02 16:23:00,63.7,24.2,30.30,NNW,337,12.0,12.0,22,0.00,,CLR,0.00,VWS V14.01,2013-03-02 22:23:00,
2013-03-02 16:28:00,63.5,24.0,30.30,WNW,300,10.0,13.0,22,0.00,,CLR,0.00,VWS V14.01,2013-03-02 22:28:00,
2013-03-02 16:33:00,63.7,24.2,30.29,WNW,296,13.0,17.0,22,0.00,,CLR,0.00,VWS V14.01,2013-03-02 22:33:00,
2013-03-02 16:38:00,64.0,24.4,30.29,NNW,341,4.0,17.0,22,0.00,,CLR,0.00,VWS V14.01,2013-03-02 22:38:00,
2013-03-02 16:43:00,64.2,24.6,30.29,NW,317,13.0,15.0,22,0.00,,CLR,0.00,VWS V14.01,2013-03-02 22:43:00,
2013-03-02 16:48:00,63.7,24.2,30.29,North,5,4.0,15.0,22,0.00,,CLR,0.00,VWS V14.01,2013-03-02 22:48:00,
2013-03-02 16:54:00,64.0,24.4,30.29,NW,322,13.0,13.0,22,0.00,,CLR,0.00,VWS V14.01,2013-03-02 22:54:00,
2013-03-02 16:59:00,64.0,24.4,30.29,NNW,345,5.0,13.0,22,0.00,,CLR,0.00,VWS V14.01,2013-03-02 22:59:00,
2013-03-02 17:04:00,64.2,24.6,30.29,NW,304,13.0,16.0,22,0.00,,CLR,0.00,VWS V14.01,2013-03-02 23:04:00,
2013-03-02 17:09:00,64.0,24.4,30.29,NNW,342,4.0,16.0,22,0.00,,CLR,0.00,VWS V14.01,2013-03-02 23:09:00,
2013-03-02 17:14:00,64.0,24.4,30.29,NNE,13,7.0,11.0,22,0.00,,CLR,0.00,VWS V14.01,2013-03-02 23:14:00,
2013-03-02 17:19:00,63.7,24.2,30.30,NNW,333,6.0,11.0,22,0.00,,CLR,0.00,VWS V14.01,2013-03-02 23:19:00,
2013-03-02 17:24:00,63.9,25.4,30.30,NNW,333,10.0,10.0,23,0.00,,CLR,0.00,VWS V14.01,2013-03-02 23:24:00,
2013-03-02 17:28:00,64.0,25.5,30.30,NW,309,4.0,10.0,23,0.00,,CLR,0.00,VWS V14.01,2013-03-02 23:28:00,
2013-03-02 17:33:00,64.0,25.5,30.30,North,360,5.0,7.0,23,0.00,,CLR,0.00,VWS V14.01,2013-03-02 23:33:00,
2013-03-02 17:38:00,64.0,25.5,30.30,NNW,346,11.0,11.0,23,0.00,,CLR,0.00,VWS V14.01,2013-03-02 23:38:00,
2013-03-02 17:43:00,63.7,25.2,30.30,NNW,336,6.0,6.0,23,0.00,,CLR,0.00,VWS V14.01,2013-03-02 23:43:00,
2013-03-02 17:48:00,63.7,25.2,30.30,NNW,342,6.0,11.0,23,0.00,,CLR,0.00,VWS V14.01,2013-03-02 23:48:00,
2013-03-02 17:53:00,63.5,26.1,30.30,NNW,328,5.0,9.0,24,0.00,,CLR,0.00,VWS V14.01,2013-03-02 23:53:00,
2013-03-02 17:58:00,63.4,26.0,30.30,North,355,4.0,10.0,24,0.00,,CLR,0.00,VWS V14.01,2013-03-02 23:58:00,
2013-03-02 18:03:00,63.2,25.8,30.30,North,5,3.0,6.0,24,0.00,,CLR,0.00,VWS V14.01,2013-03-03 00:03:00,
2013-03-02 18:08:00,62.9,25.6,30.30,NNE,24,2.0,6.0,24,0.00,,CLR,0.00,VWS V14.01,2013-03-03 00:08:00,
2013-03-02 18:13:00,62.7,25.4,30.30,North,355,5.0,7.0,24,0.00,,CLR,0.00,VWS V14.01,2013-03-03 00:13:00,
2013-03-02 18:18:00,62.7,25.4,30.30,North,5,1.0,7.0,24,0.00,,CLR,0.00,VWS V14.01,2013-03-03 00:18:00,
2013-03-02 18:23:00,62.6,25.3,30.30,North,5,2.0,5.0,24,0.00,,CLR,0.00,VWS V14.01,2013-03-03 00:23:00,
2013-03-02 18:28:00,62.4,26.1,30.30,North,355,2.0,5.0,25,0.00,,CLR,0.00,VWS V14.01,2013-03-03 00:28:00,
2013-03-02 18:33:00,62.1,25.9,30.30,North,355,0.0,0.0,25,0.00,,CLR,0.00,VWS V14.01,2013-03-03 00:33:00,
2013-03-02 18:38:00,61.8,25.6,30.30,North,355,0.0,0.0,25,0.00,,CLR,0.00,VWS V14.01,2013-03-03 00:38:00,
2013-03-02 18:43:00,61.3,26.1,30.30,North,355,0.0,0.0,26,0.00,,CLR,0.00,VWS V14.01,2013-03-03 00:43:00,
2013-03-02 18:48:00,61.0,25.9,30.30,North,355,0.0,0.0,26,0.00,,CLR,0.00,VWS V14.01,2013-03-03 00:48:00,
2013-03-02 18:53:00,60.7,26.5,30.30,North,355,0.0,0.0,27,0.00,,CLR,0.00,VWS V14.01,2013-03-03 00:53:00,
2013-03-02 18:58:00,60.2,26.1,30.30,North,355,0.0,0.0,27,0.00,,CLR,0.00,VWS V14.01,2013-03-03 00:58:00,
2013-03-02 19:03:00,59.9,25.9,30.30,North,355,0.0,0.0,27,0.00,,CLR,0.00,VWS V14.01,2013-03-03 01:03:00,
2013-03-02 19:08:00,59.6,26.5,30.30,North,355,0.0,0.0,28,0.00,,CLR,0.00,VWS V14.01,2013-03-03 01:08:00,
2013-03-02 19:13:00,59.3,26.2,30.30,North,355,0.0,0.0,28,0.00,,CLR,0.00,VWS V14.01,2013-03-03 01:13:00,
2013-03-02 19:18:00,59.2,25.3,30.30,North,355,0.0,0.0,27,0.00,,CLR,0.00,VWS V14.01,2013-03-03 01:18:00,
2013-03-02 19:23:00,58.9,25.0,30.30,North,355,0.0,0.0,27,0.00,,CLR,0.00,VWS V14.01,2013-03-03 01:23:00,
2013-03-02 19:28:00,58.4,25.5,30.30,North,355,0.0,0.0,28,0.00,,CLR,0.00,VWS V14.01,2013-03-03 01:28:00,
2013-03-02 19:33:00,58.1,25.2,30.30,North,355,0.0,0.0,28,0.00,,CLR,0.00,VWS V14.01,2013-03-03 01:33:00,
2013-03-02 19:38:00,58.0,25.1,30.30,North,355,0.0,0.0,28,0.00,,CLR,0.00,VWS V14.01,2013-03-03 01:38:00,
2013-03-02 19:43:00,57.3,25.3,30.30,North,355,0.0,0.0,29,0.00,,CLR,0.00,VWS V14.01,2013-03-03 01:43:00,
2013-03-02 19:48:00,57.2,25.2,30.30,North,355,0.0,0.0,29,0.00,,CLR,0.00,VWS V14.01,2013-03-03 01:48:00,
2013-03-02 19:53:00,56.9,25.8,30.30,North,355,0.0,0.0,30,0.00,,CLR,0.00,VWS V14.01,2013-03-03 01:53:00,
2013-03-02 19:58:00,56.6,25.5,30.30,North,355,0.0,0.0,30,0.00,,CLR,0.00,VWS V14.01,2013-03-03 01:58:00,
2013-03-02 20:03:00,56.3,26.1,30.30,North,355,0.0,0.0,31,0.00,,CLR,0.00,VWS V14.01,2013-03-03 02:03:00,
2013-03-02 20:08:00,56.0,26.6,30.30,North,355,0.0,0.0,32,0.00,,CLR,0.00,VWS V14.01,2013-03-03 02:08:00,
2013-03-02 20:13:00,55.7,26.3,30.30,North,355,0.0,0.0,32,0.00,,CLR,0.00,VWS V14.01,2013-03-03 02:13:00,
2013-03-02 20:18:00,55.3,26.0,30.30,North,355,0.0,0.0,32,0.00,,CLR,0.00,VWS V14.01,2013-03-03 02:18:00,
2013-03-02 20:23:00,55.1,25.8,30.30,North,355,0.0,0.0,32,0.00,,CLR,0.00,VWS V14.01,2013-03-03 02:23:00,
2013-03-02 20:28:00,54.8,25.5,30.30,North,355,0.0,0.0,32,0.00,,CLR,0.00,VWS V14.01,2013-03-03 02:28:00,
2013-03-02 20:33:00,54.7,26.2,30.31,North,355,0.0,0.0,33,0.00,,CLR,0.00,VWS V14.01,2013-03-03 02:33:00,
2013-03-02 20:38:00,54.5,26.0,30.31,North,355,0.0,0.0,33,0.00,,CLR,0.00,VWS V14.01,2013-03-03 02:38:00,
2013-03-02 20:43:00,54.2,26.5,30.31,North,355,0.0,0.0,34,0.00,,CLR,0.00,VWS V14.01,2013-03-03 02:43:00,
2013-03-02 20:48:00,54.1,27.1,30.31,North,355,0.0,0.0,35,0.00,,CLR,0.00,VWS V14.01,2013-03-03 02:48:00,
2013-03-02 20:53:00,53.8,26.8,30.31,North,355,0.0,0.0,35,0.00,,CLR,0.00,VWS V14.01,2013-03-03 02:53:00,
2013-03-02 20:58:00,53.6,26.6,30.31,North,355,0.0,0.0,35,0.00,,CLR,0.00,VWS V14.01,2013-03-03 02:58:00,
2013-03-02 21:03:00,53.3,26.4,30.31,North,355,0.0,0.0,35,0.00,,CLR,0.00,VWS V14.01,2013-03-03 03:03:00,
2013-03-02 21:08:00,53.2,27.0,30.31,North,355,0.0,0.0,36,0.00,,CLR,0.00,VWS V14.01,2013-03-03 03:08:00,
2013-03-02 21:13:00,53.1,27.5,30.31,North,355,0.0,0.0,37,0.00,,CLR,0.00,VWS V14.01,2013-03-03 03:13:00,
2013-03-02 21:18:00,52.8,27.3,30.32,North,355,0.0,0.0,37,0.00,,CLR,0.00,VWS V14.01,2013-03-03 03:18:00,
2013-03-02 21:23:00,52.6,27.7,30.32,North,355,0.0,0.0,38,0.00,,CLR,0.00,VWS V14.01,2013-03-03 03:23:00,
2013-03-02 21:28:00,52.3,27.5,30.32,North,355,0.0,0.0,38,0.00,,CLR,0.00,VWS V14.01,2013-03-03 03:28:00,
2013-03-02 21:33:00,52.2,27.4,30.32,North,355,0.0,0.0,38,0.00,,CLR,0.00,VWS V14.01,2013-03-03 03:33:00,
2013-03-02 21:38:00,52.2,26.7,30.32,North,355,0.0,0.0,37,0.00,,CLR,0.00,VWS V14.01,2013-03-03 03:38:00,
2013-03-02 21:43:00,52.2,26.1,30.32,North,355,0.0,0.0,36,0.00,,CLR,0.00,VWS V14.01,2013-03-03 03:43:00,
2013-03-02 21:48:00,51.9,27.1,30.32,North,355,0.0,0.0,38,0.00,,CLR,0.00,VWS V14.01,2013-03-03 03:48:00,
2013-03-02 21:53:00,51.6,26.8,30.32,North,355,0.0,0.0,38,0.00,,CLR,0.00,VWS V14.01,2013-03-03 03:53:00,
2013-03-02 21:58:00,51.1,27.0,30.32,North,355,0.0,0.0,39,0.00,,CLR,0.00,VWS V14.01,2013-03-03 03:58:00,
2013-03-02 22:03:00,51.0,26.9,30.32,North,355,0.0,0.0,39,0.00,,CLR,0.00,VWS V14.01,2013-03-03 04:03:00,
2013-03-02 22:08:00,51.0,26.3,30.32,North,355,0.0,0.0,38,0.00,,CLR,0.00,VWS V14.01,2013-03-03 04:08:00,
2013-03-02 22:13:00,50.8,26.1,30.32,North,355,0.0,0.0,38,0.00,,CLR,0.00,VWS V14.01,2013-03-03 04:13:00,
2013-03-02 22:18:00,50.7,26.7,30.32,North,355,0.0,0.0,39,0.00,,CLR,0.00,VWS V14.01,2013-03-03 04:18:00,
2013-03-02 22:23:00,50.5,26.5,30.32,North,355,0.0,0.0,39,0.00,,CLR,0.00,VWS V14.01,2013-03-03 04:23:00,
2013-03-02 22:28:00,50.4,26.4,30.32,North,355,0.0,0.0,39,0.00,,CLR,0.00,VWS V14.01,2013-03-03 04:28:00,
2013-03-02 22:33:00,50.2,26.2,30.31,North,355,0.0,0.0,39,0.00,,CLR,0.00,VWS V14.01,2013-03-03 04:33:00,
2013-03-02 22:38:00,50.1,26.7,30.31,North,355,0.0,0.0,40,0.00,,CLR,0.00,VWS V14.01,2013-03-03 04:38:00,
2013-03-02 22:43:00,49.8,26.5,30.31,North,355,0.0,0.0,40,0.00,,CLR,0.00,VWS V14.01,2013-03-03 04:43:00,
2013-03-02 22:48:00,49.5,26.2,30.32,North,355,0.0,0.0,40,0.00,,CLR,0.00,VWS V14.01,2013-03-03 04:48:00,
2013-03-02 22:53:00,49.4,26.1,30.32,North,355,0.0,0.0,40,0.00,,CLR,0.00,VWS V14.01,2013-03-03 04:53:00,
2013-03-02 22:58:00,49.4,26.1,30.32,NE,40,0.0,0.0,40,0.00,,CLR,0.00,VWS V14.01,2013-03-03 04:58:00,
2013-03-02 23:00:00,49.5,26.2,30.32,NE,40,0.0,0.0,40,0.00,,CLR,0.00,VWS V14.01,2013-03-03 05:00:00,
2013-03-02 23:05:00,49.8,25.2,30.32,NE,53,0.0,1.0,38,0.00,,CLR,0.00,VWS V14.01,2013-03-03 05:05:00,
2013-03-02 23:10:00,49.8,25.2,30.32,NE,55,2.0,3.0,38,0.00,,CLR,0.00,VWS V14.01,2013-03-03 05:10:00,
2013-03-02 23:15:00,49.6,25.7,30.32,ENE,61,0.0,4.0,39,0.00,,CLR,0.00,VWS V14.01,2013-03-03 05:15:00,
2013-03-02 23:20:00,49.4,26.1,30.31,ENE,61,0.0,4.0,40,0.00,,CLR,0.00,VWS V14.01,2013-03-03 05:20:00,
2013-03-02 23:25:00,48.9,25.7,30.31,ENE,61,0.0,0.0,40,0.00,,CLR,0.00,VWS V14.01,2013-03-03 05:25:00,
2013-03-02 23:30:00,48.8,25.6,30.31,ENE,61,0.0,0.0,40,0.00,,CLR,0.00,VWS V14.01,2013-03-03 05:30:00,
2013-03-02 23:35:00,48.5,25.9,30.31,ENE,61,0.0,0.0,41,0.00,,CLR,0.00,VWS V14.01,2013-03-03 05:35:00,
2013-03-02 23:40:00,48.3,25.7,30.31,ENE,61,0.0,0.0,41,0.00,,CLR,0.00,VWS V14.01,2013-03-03 05:40:00,
2013-03-02 23:45:00,48.2,25.6,30.31,ENE,61,0.0,0.0,41,0.00,,CLR,0.00,VWS V14.01,2013-03-03 05:45:00,
2013-03-02 23:50:00,48.0,25.4,30.30,ENE,61,0.0,0.0,41,0.00,,CLR,0.00,VWS V14.01,2013-03-03 05:50:00,
2013-03-02 23:55:00,47.7,25.8,30.30,ENE,61,0.0,0.0,42,0.00,,CLR,0.00,VWS V14.01,2013-03-03 05:55:00,